When you browse on this site, cookies collect data to enhance your experience and personalize the content and advertising you see.
Visit our Privacy Policy to learn more. By continuing to use the site, you agree to this use of cookies and data.
  • In United Kingdom
  • List of Countries
  • For 7 days
  • Water Temperature
  • Weather Map
  • Weather Widgets
  • user-avatar
    Login

    Hourly Weather Dresden

    Today, 25 August, Sunday

    Time Temperature Precipitation Wind Pressure Humidity
    00:00 +22°C° 0.1 mm 1 mps 753 mmHg 87%
    01:00 +21°C° 0.1 mm 1 mps 753 mmHg 88%
    02:00 +21°C° 0 mm 1 mps 753 mmHg 88%
    03:00 +21°C° 0 mm 1 mps 753 mmHg 88%
    04:00 +21°C° 0 mm 1 mps 753 mmHg 88%
    05:00 +21°C° 0 mm 1 mps 753 mmHg 85%
    06:00 +22°C° 0 mm 1 mps 753 mmHg 82%
    07:00 +23°C° 0 mm 2 mps 753 mmHg 79%
    08:00 +25°C° 0 mm 2 mps 753 mmHg 72%
    09:00 +27°C° 0 mm 2 mps 753 mmHg 64%
    10:00 +29°C° 0 mm 2 mps 753 mmHg 57%
    11:00 +30°C° 0 mm 3 mps 753 mmHg 54%
    12:00 +31°C° 0 mm 3 mps 753 mmHg 51%
    13:00 +33°C° 0 mm 3 mps 752 mmHg 48%
    14:00 +31°C° 0.2 mm 3 mps 752 mmHg 49%
    15:00 +31°C° 0.2 mm 3 mps 752 mmHg 50%
    16:00 +31°C° 0.2 mm 3 mps 752 mmHg 51%
    17:00 +30°C° 0.4 mm 3 mps 752 mmHg 58%
    18:00 +28°C° 0.4 mm 3 mps 752 mmHg 65%
    19:00 +26°C° 0.4 mm 2 mps 752 mmHg 72%
    20:00 +25°C° 0.1 mm 2 mps 752 mmHg 75%
    21:00 +24°C° 0.1 mm 2 mps 752 mmHg 77%
    22:00 +23°C° 0.1 mm 2 mps 752 mmHg 80%
    23:00 +23°C° 0.1 mm 2 mps 752 mmHg 80%

    Tomorrow, 26 August, Monday

    Time Temperature Precipitation Wind Pressure Humidity
    00:00 +23°C° 0.1 mm 2 mps 752 mmHg 81%
    01:00 +21°C° 0.1 mm 2 mps 752 mmHg 82%
    02:00 +21°C° 0.1 mm 2 mps 752 mmHg 83%
    03:00 +21°C° 0.1 mm 2 mps 752 mmHg 84%
    04:00 +21°C° 0.1 mm 2 mps 752 mmHg 85%
    05:00 +21°C° 0.1 mm 2 mps 752 mmHg 84%
    06:00 +23°C° 0.1 mm 2 mps 752 mmHg 83%
    07:00 +23°C° 0.1 mm 2 mps 752 mmHg 82%
    08:00 +25°C° 0 mm 2 mps 752 mmHg 75%
    09:00 +27°C° 0 mm 2 mps 752 mmHg 68%
    10:00 +28°C° 0 mm 2 mps 752 mmHg 61%
    11:00 +30°C° 0 mm 3 mps 752 mmHg 56%
    12:00 +31°C° 0 mm 3 mps 752 mmHg 50%
    13:00 +33°C° 0 mm 3 mps 751 mmHg 45%
    14:00 +33°C° 0 mm 3 mps 751 mmHg 46%
    15:00 +33°C° 0 mm 3 mps 751 mmHg 46%
    16:00 +33°C° 0 mm 3 mps 751 mmHg 46%
    17:00 +30°C° 0 mm 3 mps 751 mmHg 52%
    18:00 +29°C° 0 mm 2 mps 751 mmHg 59%
    19:00 +27°C° 0 mm 2 mps 751 mmHg 65%
    20:00 +26°C° 0.1 mm 2 mps 751 mmHg 67%
    21:00 +25°C° 0.1 mm 2 mps 751 mmHg 69%
    22:00 +25°C° 0.1 mm 2 mps 751 mmHg 72%
    23:00 +24°C° 0 mm 1 mps 751 mmHg 72%

    Day after tomorrow, 27 August, Tuesday

    Time Temperature Precipitation Wind Pressure Humidity
    00:00 +24°C° 0 mm 1 mps 751 mmHg 73%
    01:00 +23°C° 0 mm 1 mps 751 mmHg 74%
    02:00 +23°C° 0.1 mm 1 mps 751 mmHg 75%
    03:00 +23°C° 0.1 mm 1 mps 751 mmHg 77%
    04:00 +21°C° 0.1 mm 2 mps 751 mmHg 78%
    05:00 +23°C° 0.1 mm 2 mps 751 mmHg 77%
    06:00 +24°C° 0.1 mm 2 mps 751 mmHg 77%
    07:00 +24°C° 0.1 mm 2 mps 751 mmHg 76%
    08:00 +26°C° 0 mm 2 mps 751 mmHg 71%
    09:00 +27°C° 0 mm 2 mps 751 mmHg 65%
    10:00 +29°C° 0 mm 2 mps 751 mmHg 60%
    11:00 +30°C° 0.2 mm 2 mps 751 mmHg 57%
    12:00 +31°C° 0.2 mm 2 mps 751 mmHg 53%
    13:00 +33°C° 0.2 mm 3 mps 751 mmHg 49%
    14:00 +33°C° 0.1 mm 3 mps 751 mmHg 50%
    15:00 +33°C° 0.1 mm 3 mps 750 mmHg 50%
    16:00 +33°C° 0.1 mm 3 mps 750 mmHg 51%
    17:00 +30°C° 0 mm 2 mps 750 mmHg 57%
    18:00 +28°C° 0 mm 2 mps 750 mmHg 63%
    19:00 +27°C° 0 mm 1 mps 750 mmHg 69%
    20:00 +26°C° 0 mm 2 mps 750 mmHg 71%
    21:00 +25°C° 0 mm 2 mps 750 mmHg 73%
    22:00 +25°C° 0 mm 2 mps 750 mmHg 74%
    23:00 +24°C° 0.1 mm 2 mps 750 mmHg 76%

    28 August, Wednesday

    Time Temperature Precipitation Wind Pressure Humidity
    00:00 +24°C° 0.1 mm 2 mps 750 mmHg 77%
    01:00 +24°C° 0.1 mm 2 mps 750 mmHg 78%
    02:00 +23°C° 0.1 mm 2 mps 750 mmHg 79%
    03:00 +23°C° 0.1 mm 2 mps 749 mmHg 80%
    04:00 +23°C° 0.1 mm 1 mps 749 mmHg 81%
    05:00 +23°C° 0.1 mm 1 mps 749 mmHg 80%
    06:00 +24°C° 0.1 mm 1 mps 749 mmHg 78%
    07:00 +25°C° 0.1 mm 2 mps 749 mmHg 77%
    08:00 +26°C° 0 mm 2 mps 749 mmHg 71%
    09:00 +28°C° 0 mm 2 mps 749 mmHg 65%
    10:00 +30°C° 0 mm 2 mps 749 mmHg 59%
    11:00 +31°C° 0 mm 2 mps 749 mmHg 55%
    12:00 +31°C° 0 mm 2 mps 749 mmHg 52%
    13:00 +32°C° 0 mm 2 mps 748 mmHg 48%
    14:00 +32°C° 0 mm 2 mps 748 mmHg 48%
    15:00 +32°C° 0 mm 2 mps 748 mmHg 48%
    16:00 +33°C° 0 mm 3 mps 747 mmHg 48%
    17:00 +30°C° 0 mm 2 mps 747 mmHg 52%
    18:00 +29°C° 0 mm 2 mps 747 mmHg 56%
    19:00 +27°C° 0 mm 2 mps 747 mmHg 61%
    20:00 +26°C° 0 mm 2 mps 747 mmHg 61%
    21:00 +26°C° 0 mm 2 mps 747 mmHg 62%
    22:00 +25°C° 0 mm 2 mps 747 mmHg 62%
    23:00 +25°C° 0 mm 2 mps 747 mmHg 64%

    29 August, Thursday

    Time Temperature Precipitation Wind Pressure Humidity
    00:00 +25°C° 0 mm 2 mps 747 mmHg 65%
    01:00 +24°C° 0 mm 2 mps 747 mmHg 67%
    02:00 +24°C° 0 mm 2 mps 747 mmHg 69%
    03:00 +24°C° 0 mm 1 mps 747 mmHg 71%
    04:00 +23°C° 0 mm 1 mps 747 mmHg 72%
    05:00 +24°C° 0 mm 1 mps 747 mmHg 71%
    06:00 +24°C° 0 mm 1 mps 747 mmHg 70%
    07:00 +25°C° 0 mm 1 mps 747 mmHg 69%
    08:00 +27°C° 0 mm 1 mps 747 mmHg 63%
    09:00 +28°C° 0 mm 1 mps 748 mmHg 58%
    10:00 +30°C° 0 mm 1 mps 748 mmHg 52%
    11:00 +31°C° 0 mm 1 mps 748 mmHg 49%
    12:00 +32°C° 0 mm 1 mps 748 mmHg 47%
    13:00 +32°C° 0 mm 1 mps 748 mmHg 44%
    14:00 +32°C° 0.1 mm 1 mps 748 mmHg 44%
    15:00 +32°C° 0.1 mm 1 mps 748 mmHg 45%
    16:00 +32°C° 0.1 mm 1 mps 748 mmHg 46%
    17:00 +30°C° 0.1 mm 1 mps 748 mmHg 50%
    18:00 +28°C° 0.1 mm 1 mps 748 mmHg 54%
    19:00 +27°C° 0.1 mm 1 mps 748 mmHg 59%
    20:00 +26°C° 0.6 mm 1 mps 749 mmHg 66%
    21:00 +24°C° 0.6 mm 1 mps 749 mmHg 74%
    22:00 +23°C° 0.6 mm 2 mps 750 mmHg 81%
    23:00 +23°C° 0.8 mm 2 mps 750 mmHg 85%

    30 August, Friday

    Time Temperature Precipitation Wind Pressure Humidity
    00:00 +21°C° 0.8 mm 2 mps 750 mmHg 88%
    01:00 +21°C° 0.8 mm 2 mps 750 mmHg 92%
    02:00 +21°C° 0.9 mm 2 mps 750 mmHg 92%
    03:00 +21°C° 0.9 mm 2 mps 750 mmHg 92%
    04:00 +21°C° 0.9 mm 2 mps 750 mmHg 92%
    05:00 +21°C° 0.2 mm 2 mps 751 mmHg 92%
    06:00 +21°C° 0.2 mm 2 mps 751 mmHg 92%
    07:00 +21°C° 0.2 mm 2 mps 751 mmHg 92%
    08:00 +21°C° 0 mm 3 mps 751 mmHg 91%
    09:00 +22°C° 0 mm 3 mps 752 mmHg 90%
    10:00 +22°C° 0 mm 3 mps 752 mmHg 89%
    11:00 +22°C° 0.1 mm 3 mps 752 mmHg 86%
    12:00 +24°C° 0.1 mm 3 mps 752 mmHg 83%
    13:00 +24°C° 0.1 mm 3 mps 752 mmHg 81%
    14:00 +25°C° 0.1 mm 3 mps 752 mmHg 78%
    15:00 +25°C° 0.1 mm 3 mps 752 mmHg 75%
    16:00 +26°C° 0.1 mm 3 mps 752 mmHg 71%
    17:00 +25°C° 0 mm 3 mps 752 mmHg 75%
    18:00 +24°C° 0 mm 2 mps 752 mmHg 79%
    19:00 +23°C° 0 mm 2 mps 752 mmHg 83%
    20:00 +21°C° 0 mm 2 mps 752 mmHg 85%
    21:00 +20°C° 0 mm 2 mps 752 mmHg 87%
    22:00 +21°C° 0 mm 1 mps 752 mmHg 89%
    23:00 +20°C° 0 mm 1 mps 752 mmHg 91%
    Show more